• In Lithuania
  • List of Countries
  • For 7 days
  • Water Temperature
  • Satellite Maps
  • Weather Map
  • Weather Widgets
  • user-avatar
    Login

    Hourly Weather Skyneshory

    Today, 20 January, Saturday

    Time Temperature Precipitation Wind Pressure Humidity
    00:00 -1°C° 0 mm 2 mps 745 mmHg 83%
    01:00 -1°C° 0 mm 2 mps 745 mmHg 83%
    02:00 +1°C° 0 mm 1 mps 745 mmHg 84%
    03:00 +1°C° 0.2 mm 1 mps 744 mmHg 85%
    04:00 +1°C° 0.2 mm 1 mps 744 mmHg 86%
    05:00 0°C° 0.2 mm 0 mps 744 mmHg 87%
    06:00 +1°C° 0.2 mm 1 mps 744 mmHg 88%
    07:00 +1°C° 0.2 mm 1 mps 744 mmHg 89%
    08:00 -1°C° 0.2 mm 2 mps 744 mmHg 90%
    09:00 -1°C° 0.1 mm 2 mps 744 mmHg 93%
    10:00 -1°C° 0.1 mm 3 mps 744 mmHg 96%
    11:00 0°C° 0.1 mm 3 mps 745 mmHg 99%
    12:00 0°C° 0.2 mm 3 mps 744 mmHg 99%
    13:00 0°C° 0.2 mm 3 mps 744 mmHg 99%
    14:00 0°C° 0.2 mm 3 mps 744 mmHg 99%
    15:00 -1°C° 0.1 mm 3 mps 744 mmHg 98%
    16:00 -1°C° 0.1 mm 3 mps 744 mmHg 97%
    17:00 -1°C° 0.1 mm 3 mps 744 mmHg 95%
    18:00 -2°C° 0 mm 3 mps 744 mmHg 95%
    19:00 -2°C° 0 mm 2 mps 744 mmHg 94%
    20:00 -3°C° 0 mm 2 mps 744 mmHg 93%
    21:00 -3°C° 0 mm 2 mps 744 mmHg 92%
    22:00 -3°C° 0 mm 2 mps 744 mmHg 92%
    23:00 -3°C° 0 mm 2 mps 744 mmHg 91%

    Tomorrow, 21 January, Sunday

    Time Temperature Precipitation Wind Pressure Humidity
    00:00 -4°C° 0 mm 2 mps 744 mmHg 90%
    01:00 -4°C° 0 mm 2 mps 744 mmHg 89%
    02:00 -5°C° 0 mm 2 mps 744 mmHg 89%
    03:00 -5°C° 0 mm 2 mps 744 mmHg 88%
    04:00 -6°C° 0 mm 2 mps 745 mmHg 87%
    05:00 -4°C° 0 mm 1 mps 745 mmHg 87%
    06:00 -4°C° 0 mm 1 mps 745 mmHg 87%
    07:00 -4°C° 0 mm 1 mps 745 mmHg 86%
    08:00 -6°C° 0 mm 1 mps 746 mmHg 86%
    09:00 -3°C° 0 mm 1 mps 746 mmHg 85%
    10:00 -2°C° 0 mm 1 mps 746 mmHg 84%
    11:00 -1°C° 0 mm 1 mps 746 mmHg 83%
    12:00 0°C° 0 mm 1 mps 746 mmHg 84%
    13:00 0°C° 0 mm 1 mps 746 mmHg 85%
    14:00 -1°C° 0 mm 2 mps 746 mmHg 87%
    15:00 -2°C° 0 mm 2 mps 746 mmHg 87%
    16:00 -3°C° 0 mm 2 mps 746 mmHg 88%
    17:00 -4°C° 0 mm 2 mps 746 mmHg 88%
    18:00 -4°C° 0 mm 2 mps 746 mmHg 88%
    19:00 -5°C° 0 mm 3 mps 746 mmHg 88%
    20:00 -5°C° 0 mm 3 mps 746 mmHg 88%
    21:00 -5°C° 0 mm 3 mps 746 mmHg 88%
    22:00 -5°C° 0 mm 4 mps 746 mmHg 88%
    23:00 -5°C° 0 mm 4 mps 746 mmHg 88%

    Day after tomorrow, 22 January, Monday

    Time Temperature Precipitation Wind Pressure Humidity
    00:00 -5°C° 0 mm 4 mps 746 mmHg 88%
    01:00 -5°C° 0 mm 4 mps 745 mmHg 89%
    02:00 -5°C° 0 mm 4 mps 745 mmHg 89%
    03:00 -6°C° 0 mm 5 mps 745 mmHg 88%
    04:00 -6°C° 0 mm 5 mps 745 mmHg 87%
    05:00 -6°C° 0 mm 5 mps 745 mmHg 87%
    06:00 -6°C° 0 mm 5 mps 745 mmHg 86%
    07:00 -6°C° 0 mm 6 mps 745 mmHg 86%
    08:00 -6°C° 0 mm 6 mps 745 mmHg 85%
    09:00 -6°C° 0.1 mm 6 mps 745 mmHg 85%
    10:00 -6°C° 0.1 mm 6 mps 745 mmHg 85%
    11:00 -6°C° 0.1 mm 7 mps 745 mmHg 86%
    12:00 -6°C° 0.3 mm 7 mps 745 mmHg 86%
    13:00 -6°C° 0.3 mm 7 mps 745 mmHg 87%
    14:00 -6°C° 0.3 mm 8 mps 745 mmHg 88%
    15:00 -6°C° 0.4 mm 8 mps 745 mmHg 88%
    16:00 -7°C° 0.4 mm 8 mps 745 mmHg 89%
    17:00 -7°C° 0.4 mm 8 mps 746 mmHg 90%
    18:00 -7°C° 0.2 mm 8 mps 746 mmHg 90%
    19:00 -7°C° 0.2 mm 8 mps 746 mmHg 90%
    20:00 -8°C° 0.2 mm 8 mps 746 mmHg 89%
    21:00 -8°C° 0.1 mm 8 mps 747 mmHg 89%
    22:00 -8°C° 0.1 mm 8 mps 747 mmHg 89%
    23:00 -8°C° 0.1 mm 8 mps 747 mmHg 88%

    23 January, Tuesday

    Time Temperature Precipitation Wind Pressure Humidity
    00:00 -8°C° 0 mm 7 mps 747 mmHg 88%
    01:00 -8°C° 0 mm 7 mps 748 mmHg 88%
    02:00 -8°C° 0 mm 7 mps 748 mmHg 88%
    03:00 -9°C° 0 mm 7 mps 748 mmHg 88%
    04:00 -9°C° 0 mm 7 mps 748 mmHg 88%
    05:00 -9°C° 0 mm 7 mps 749 mmHg 88%
    06:00 -11°C° 0 mm 7 mps 749 mmHg 87%
    07:00 -11°C° 0 mm 7 mps 750 mmHg 87%
    08:00 -11°C° 0 mm 7 mps 750 mmHg 87%
    09:00 -11°C° 0 mm 7 mps 751 mmHg 86%
    10:00 -11°C° 0 mm 8 mps 751 mmHg 85%
    11:00 -10°C° 0 mm 8 mps 752 mmHg 84%
    12:00 -10°C° 0 mm 8 mps 752 mmHg 83%
    13:00 -10°C° 0 mm 8 mps 752 mmHg 81%
    14:00 -8°C° 0 mm 8 mps 752 mmHg 80%
    15:00 -10°C° 0 mm 8 mps 753 mmHg 80%
    16:00 -11°C° 0 mm 7 mps 753 mmHg 80%
    17:00 -11°C° 0 mm 7 mps 754 mmHg 80%
    18:00 -12°C° 0 mm 7 mps 754 mmHg 81%
    19:00 -12°C° 0 mm 7 mps 755 mmHg 81%
    20:00 -13°C° 0 mm 7 mps 755 mmHg 82%
    21:00 -13°C° 0 mm 7 mps 756 mmHg 81%
    22:00 -13°C° 0 mm 7 mps 756 mmHg 81%
    23:00 -14°C° 0 mm 7 mps 757 mmHg 81%

    24 January, Wednesday

    Time Temperature Precipitation Wind Pressure Humidity
    00:00 -14°C° 0 mm 7 mps 757 mmHg 81%
    01:00 -14°C° 0 mm 7 mps 757 mmHg 81%
    02:00 -14°C° 0 mm 6 mps 758 mmHg 80%
    03:00 -14°C° 0 mm 6 mps 758 mmHg 80%
    04:00 -14°C° 0 mm 6 mps 758 mmHg 80%
    05:00 -14°C° 0 mm 6 mps 758 mmHg 80%
    06:00 -14°C° 0 mm 6 mps 759 mmHg 81%
    07:00 -14°C° 0 mm 6 mps 759 mmHg 82%
    08:00 -14°C° 0 mm 6 mps 759 mmHg 83%
    09:00 -12°C° 0 mm 6 mps 760 mmHg 82%
    10:00 -11°C° 0 mm 6 mps 760 mmHg 82%
    11:00 -10°C° 0 mm 6 mps 760 mmHg 82%
    12:00 -9°C° 0 mm 6 mps 760 mmHg 82%
    13:00 -9°C° 0 mm 6 mps 760 mmHg 82%
    14:00 -8°C° 0 mm 6 mps 760 mmHg 82%
    15:00 -9°C° 0 mm 6 mps 760 mmHg 84%
    16:00 -10°C° 0 mm 5 mps 760 mmHg 85%
    17:00 -11°C° 0 mm 5 mps 760 mmHg 86%
    18:00 -11°C° 0 mm 5 mps 760 mmHg 87%
    19:00 -12°C° 0 mm 5 mps 760 mmHg 88%
    20:00 -12°C° 0 mm 5 mps 761 mmHg 88%
    21:00 -12°C° 0 mm 4 mps 761 mmHg 89%
    22:00 -12°C° 0 mm 4 mps 761 mmHg 89%
    23:00 -14°C° 0 mm 4 mps 761 mmHg 89%

    25 January, Thursday

    Time Temperature Precipitation Wind Pressure Humidity
    00:00 -14°C° 0 mm 4 mps 761 mmHg 90%
    01:00 -14°C° 0 mm 4 mps 761 mmHg 90%
    02:00 -15°C° 0 mm 4 mps 761 mmHg 90%
    03:00 -15°C° 0 mm 4 mps 761 mmHg 91%
    04:00 -14°C° 0 mm 3 mps 761 mmHg 92%
    05:00 -14°C° 0 mm 3 mps 761 mmHg 93%
    06:00 -14°C° 0 mm 3 mps 761 mmHg 93%
    07:00 -13°C° 0 mm 3 mps 761 mmHg 94%
    08:00 -13°C° 0 mm 3 mps 761 mmHg 95%
    09:00 -12°C° 0 mm 3 mps 761 mmHg 94%
    10:00 -10°C° 0 mm 3 mps 761 mmHg 94%
    11:00 -8°C° 0 mm 2 mps 761 mmHg 93%
    12:00 -7°C° 0 mm 2 mps 761 mmHg 93%
    13:00 -6°C° 0 mm 2 mps 761 mmHg 93%
    14:00 -6°C° 0 mm 2 mps 761 mmHg 93%
    15:00 -6°C° 0 mm 2 mps 760 mmHg 93%
    16:00 -6°C° 0 mm 2 mps 760 mmHg 93%
    17:00 -4°C° 0 mm 1 mps 760 mmHg 93%
    18:00 -4°C° 0 mm 1 mps 760 mmHg 93%
    19:00 -4°C° 0 mm 1 mps 760 mmHg 93%
    20:00 -7°C° 0 mm 2 mps 760 mmHg 93%
    21:00 -7°C° 0 mm 2 mps 760 mmHg 93%
    22:00 -7°C° 0 mm 2 mps 760 mmHg 94%
    23:00 -7°C° 0 mm 2 mps 760 mmHg 94%
    Show more